Regional Weather Roundup
Issued by NWS Green Bay, WI

Home | Current Version | Previous Version | Text Only | Print | Product List | Glossary On
Versions: 1 2 3 4 5 6 7 8 9 10 11 12 13 14 15 16 17 18 19 20 21 22 23 24 25 26 27 28 29 30 31 32 33 34 35 36 37 38 39 40 41 42 43 44 45 46 47 48 49 50
000
ASUS43 KGRB 201959
RWRGRB

NORTH-CENTRAL AND NORTHEAST WISCONSIN REGIONAL WEATHER ROUNDUP
NATIONAL WEATHER SERVICE GREEN BAY WI
200 PM CST SAT DEC 20 2014

WIZ005-009-010>012-018-019-202100-
NORTH CENTRAL WISCONSIN

CITY           SKY/WX    TMP DP  RH WIND       PRES   REMARKS
IRONWOOD       CLOUDY    30  27  86 S8        30.10S
MANITOWISH WTR NOT AVBL
ARBOR VITAE    NOT AVBL
EAGLE RIVER    NOT AVBL
LAND O LAKES   NOT AVBL
RHINELANDER    CLOUDY    26  24  92 S5        30.14F FOG
PHILLIPS       NOT AVBL
ANTIGO         NOT AVBL
TOMAHAWK       NOT AVBL
MERRILL        NOT AVBL
$$

WIZ013-073-202100-
NORTHEAST WISCONSIN

CITY           SKY/WX    TMP DP  RH WIND       PRES   REMARKS
IRON MOUNTAIN  CLOUDY    27  23  85 SE3       30.17F
MARINETTE      CLOUDY    28  21  74 CALM      30.22S
$$

WIZ017-030-035>037-045-202100-
CENTRAL WISCONSIN

CITY           SKY/WX    TMP DP  RH WIND       PRES   REMARKS
MEDFORD        NOT AVBL
WAUSAU         CLOUDY    29  24  82 S7        30.16S
MOSINEE        CLOUDY    28  27  93 SE3       30.18S
MARSHFIELD     CLOUDY    30  25  81 SE7       30.17S HAZE
WISC RAPIDS    CLOUDY    31  24  75 S5        30.20F
STEVENS POINT  NOT AVBL
WAUPACA        NOT AVBL
SHAWANO        NOT AVBL
CLINTONVILLE   NOT AVBL
$$

WIZ038-039-048-051-202100-
FOX VALLEY

CITY           SKY/WX    TMP DP  RH WIND       PRES   REMARKS
NWS GREEN BAY  CLOUDY    30  24  78 CALM      30.22F HAZE
APPLETON       CLOUDY    28  21  74 VRB5      30.22F
OSHKOSH        CLOUDY    29  23  78 S6        30.22F HAZE
FOND DU LAC    LGT SNOW  30  23  75 S3        30.22F
$$

WIZ022-050-052-202100-
EAST CENTRAL WISCONSIN

CITY           SKY/WX    TMP DP  RH WIND       PRES   REMARKS
STURGEON BAY   CLOUDY    28  21  74 SE5       30.23F
MANITOWOC      NOT AVBL
SHEBOYGAN      CLOUDY    32  23  69 CALM      30.22F
$$

LMZ563-521-522-541>543-202100-
LAKESHORE

STATION/POSITION TIME  TEMP    WIND        PRES    VSBY  WAVE
                       AIR SEA DIR/SP/G                  HT/PER
                 (UTC) (F)     (DEG/KT/KT) (MB)    (MI)  (FT/S)
SHEBOYGAN LKSHOR 1900   31 33   10/  6/  7 1024.7F
KEWAUNEE LKSHORE 1900   31     280/  2/  5 1022.8F
ALGOMA MARINA    1900             CALM       N/A
TWO RIVERS CG    1900   33                 1024.3      6
NORTHPORT PIER   1900   30     300/  3/  7 1023.7S
SISTER BAY LKSHO 1900             CALM       N/A
STURGEON BAY CG  1900   31     300/  4     1024.3   3 1/2  0
CHAMBERS ISLAND  1900   28     240/  4/  5 1024.0S
MENOMINEE LKSHOR 1900   28     130/  4/  5 1024.1F
$$


USA.gov is the U.S. government's official web portal to all federal, state and local government web resources and services.